| time (UTC) | temp F | wind direction | speed knots | gust knots | rain 1hr in | rain 24hr in | rain mn in | humidity % | barometer mb |
| 20260504010020 | 68 | 223 | 0.0 | 3.5 | 0.00 | 0.00 | 0.00 | 62 | 1010.1 |
| 20260504004518 | 69 | 159 | 0.0 | 2.6 | 0.00 | 0.00 | 0.00 | 62 | 1010.2 |
| 20260504003017 | 70 | 180 | 0.9 | 6.1 | 0.00 | 0.00 | 0.00 | 61 | 1010.5 |
| 20260504001515 | 73 | 179 | 2.6 | 5.2 | 0.00 | 0.00 | 0.00 | 57 | 1010.4 |
| 20260504000013 | 77 | 341 | 0.0 | 4.3 | 0.00 | 0.00 | 0.00 | 46 | 1010.6 |
| 20260503234512 | 77 | 298 | 1.7 | 7.0 | 0.00 | 0.00 | 0.00 | 47 | 1010.8 |
| 20260503233018 | 78 | 158 | 1.7 | 3.5 | 0.00 | 0.00 | 0.00 | 47 | 1010.9 |
| 20260503231510 | 76 | 215 | 0.9 | 3.5 | 0.00 | 0.00 | 0.00 | 52 | 1010.9 |
| 20260503230006 | 78 | 257 | 0.9 | 5.2 | 0.00 | 0.00 | 0.00 | 49 | 1011.2 |
| 20260503224505 | 76 | 30 | 2.6 | 4.3 | 0.00 | 0.00 | 0.00 | 47 | 1011.4 |
| 20260503223003 | 77 | 288 | 0.9 | 4.3 | 0.00 | 0.00 | 0.00 | 45 | 1011.5 |
| 20260503221501 | 77 | 22 | 0.0 | 4.3 | 0.00 | 0.00 | 0.00 | 44 | 1011.7 |
| 20260503220059 | 76 | 292 | 0.0 | 2.6 | 0.00 | 0.00 | 0.00 | 45 | 1011.9 |
| 20260503214601 | 76 | 26 | 0.9 | 4.3 | 0.00 | 0.00 | 0.00 | 48 | 1012.0 |
| 20260503213057 | 76 | 305 | 0.9 | 7.0 | 0.00 | 0.00 | 0.00 | 42 | 1012.1 |
| 20260503211556 | 77 | 360 | 2.6 | 7.0 | 0.00 | 0.00 | 0.00 | 42 | 1012.1 |
| 20260503210054 | 76 | 190 | 0.9 | 4.3 | 0.00 | 0.00 | 0.00 | 45 | 1012.2 |
| 20260503204552 | 77 | 343 | 1.7 | 7.0 | 0.00 | 0.00 | 0.00 | 45 | 1012.5 |
| 20260503203104 | 74 | 24 | 1.7 | 4.3 | 0.00 | 0.00 | 0.00 | 41 | 1012.9 |
| 20260503201546 | 74 | 345 | 1.7 | 8.7 | 0.00 | 0.00 | 0.00 | 46 | 1013.0 |
| 20260503200043 | 73 | 227 | 2.6 | 7.0 | 0.00 | 0.00 | 0.00 | 48 | 1013.3 |
| 20260503194544 | 72 | 5 | 1.7 | 5.2 | 0.00 | 0.00 | 0.00 | 56 | 1013.3 |
| 20260503193041 | 72 | 26 | 3.5 | 8.7 | 0.00 | 0.00 | 0.00 | 54 | 1013.4 |
| 20260503191546 | 71 | 206 | 1.7 | 7.8 | 0.00 | 0.00 | 0.00 | 56 | 1013.5 |
| 20260503190042 | 73 | 15 | 0.9 | 4.3 | 0.00 | 0.00 | 0.00 | 58 | 1013.4 |
| 20260503184534 | 73 | 74 | 0.9 | 4.3 | 0.00 | 0.00 | 0.00 | 55 | 1013.5 |
| 20260503183032 | 71 | 323 | 0.0 | 4.3 | 0.00 | 0.00 | 0.00 | 60 | 1013.6 |
| 20260503181527 | 70 | 21 | 0.9 | 3.5 | 0.00 | 0.00 | 0.00 | 63 | 1013.8 |
| 20260503180023 | 70 | 181 | 0.0 | 4.3 | 0.00 | 0.00 | 0.00 | 63 | 1014.1 |
| 20260503174520 | 67 | 202 | 0.9 | 4.3 | 0.00 | 0.00 | 0.00 | 67 | 1014.2 |
| 20260503173017 | 68 | 205 | 2.6 | 4.3 | 0.00 | 0.00 | 0.00 | 67 | 1014.3 |
| 20260503171513 | 67 | 27 | 0.9 | 3.5 | 0.00 | 0.00 | 0.00 | 66 | 1014.4 |
| 20260503081602 | 53 | 204 | 0.0 | 0.9 | 0.00 | 0.00 | 0.00 | 84 | 1014.3 |
| 20260503071553 | 54 | 204 | 0.0 | 0.0 | 0.00 | 0.00 | 0.00 | 82 | 1014.2 |
| 20260503060110 | 55 | 204 | 0.0 | 0.0 | 0.00 | 0.00 | 0.00 | 82 | 1014.0 |
| 20260503054601 | 55 | 204 | 0.0 | 0.0 | 0.00 | 0.00 | 0.00 | 82 | 1014.0 |
| 20260503053047 | 56 | 204 | 0.0 | 0.0 | 0.00 | 0.00 | 0.00 | 81 | 1014.1 |
| 20260503051546 | 56 | 204 | 0.0 | 0.0 | 0.00 | 0.00 | 0.00 | 81 | 1014.2 |
| 20260503050045 | 56 | 204 | 0.0 | 0.0 | 0.00 | 0.00 | 0.00 | 80 | 1014.1 |
| 20260503044548 | 56 | 204 | 0.0 | 0.0 | 0.00 | 0.00 | 0.00 | 79 | 1014.1 |
| 20260503043048 | 57 | 204 | 0.0 | 0.0 | 0.00 | 0.00 | 0.00 | 80 | 1014.1 |
| 20260503041546 | 57 | 204 | 0.0 | 0.0 | 0.00 | 0.00 | 0.00 | 79 | 1013.9 |
| 20260503040042 | 58 | 204 | 0.0 | 0.0 | 0.00 | 0.00 | 0.00 | 77 | 1013.7 |
| 20260503034542 | 58 | 199 | 0.0 | 0.0 | 0.00 | 0.00 | 0.00 | 75 | 1013.5 |
| 20260503033041 | 59 | 190 | 0.0 | 0.9 | 0.00 | 0.00 | 0.00 | 75 | 1013.3 |
| 20260503031545 | 60 | 190 | 0.0 | 0.0 | 0.00 | 0.00 | 0.00 | 74 | 1013.4 |
| 20260503030046 | 61 | 190 | 0.0 | 0.0 | 0.00 | 0.00 | 0.00 | 75 | 1013.3 |
| 20260503024540 | 62 | 190 | 0.0 | 0.9 | 0.00 | 0.00 | 0.00 | 74 | 1013.2 |
| 20260503023039 | 62 | 190 | 0.0 | 1.7 | 0.00 | 0.00 | 0.00 | 71 | 1013.2 |
| 20260503021538 | 63 | 190 | 0.0 | 0.9 | 0.00 | 0.00 | 0.00 | 70 | 1013.3 |
| 20260503020037 | 63 | 190 | 0.0 | 0.9 | 0.00 | 0.00 | 0.00 | 69 | 1013.4 |
| 20260503014636 | 64 | 190 | 0.0 | 1.7 | 0.00 | 0.00 | 0.00 | 70 | 1013.6 |
| 20260503013036 | 64 | 196 | 1.7 | 2.6 | 0.00 | 0.00 | 0.00 | 67 | 1013.6 |
| 20260503011535 | 65 | 219 | 0.0 | 1.7 | 0.00 | 0.00 | 0.00 | 68 | 1013.8 |